Time,TemperatureF,DewpointF,PressureIn,WindDirection,WindDirectionDegrees,WindSpeedMPH,WindSpeedGustMPH,Humidity,HourlyPrecipIn,Conditions,Clouds,dailyrainin,SoftwareType,DateUTC
2013-12-02 00:01:00,55.2,52.9,29.99,NNE,12,0.0,0.0,92,0.00,,,0.00,meteobridge,2013-12-02 05:01:00,
2013-12-02 00:03:00,55.2,52.9,29.99,NNE,12,0.0,0.0,92,0.00,,,0.00,meteobridge,2013-12-02 05:03:00,
2013-12-02 00:04:00,55.2,52.9,29.98,NNE,12,0.0,0.0,92,0.00,,,0.00,meteobridge,2013-12-02 05:04:00,
2013-12-02 00:06:00,55.2,52.9,29.98,NNE,12,0.0,0.0,92,0.00,,,0.00,meteobridge,2013-12-02 05:06:00,
2013-12-02 00:08:00,55.2,52.9,29.98,NNE,12,0.0,0.0,92,0.00,,,0.00,meteobridge,2013-12-02 05:08:00,
2013-12-02 00:13:00,55.2,52.9,29.98,NNE,12,0.0,0.0,92,0.00,,,0.00,meteobridge,2013-12-02 05:13:00,
2013-12-02 00:18:00,55.2,52.9,29.98,NNE,12,0.0,0.0,92,0.00,,,0.00,meteobridge,2013-12-02 05:18:00,
2013-12-02 00:23:00,55.2,52.9,29.98,NNE,12,0.0,0.0,92,0.00,,,0.00,meteobridge,2013-12-02 05:23:00,
2013-12-02 00:29:00,55.2,52.9,29.98,NNE,12,0.0,0.0,92,0.00,,,0.00,meteobridge,2013-12-02 05:29:00,
2013-12-02 00:34:00,55.2,52.9,29.98,NNE,12,0.0,0.0,92,0.00,,,0.00,meteobridge,2013-12-02 05:34:00,
2013-12-02 00:39:00,55.2,52.9,29.97,NNE,12,0.0,0.0,92,0.00,,,0.00,meteobridge,2013-12-02 05:39:00,
2013-12-02 00:44:00,55.2,52.9,29.97,NNE,12,0.0,0.0,92,0.00,,,0.00,meteobridge,2013-12-02 05:44:00,
2013-12-02 00:49:00,55.2,52.9,29.97,NNE,12,0.0,0.0,92,0.00,,,0.00,meteobridge,2013-12-02 05:49:00,
2013-12-02 00:55:00,55.0,52.7,29.96,NNE,12,0.0,0.0,92,0.00,,,0.00,meteobridge,2013-12-02 05:55:00,
2013-12-02 01:00:00,55.0,52.7,29.96,NNE,12,0.0,0.0,92,0.00,,,0.00,meteobridge,2013-12-02 06:00:00,
2013-12-02 01:05:00,55.0,52.7,29.96,NNE,12,0.0,0.0,92,0.00,,,0.00,meteobridge,2013-12-02 06:05:00,
2013-12-02 01:10:00,55.0,52.7,29.96,NNE,12,0.0,0.0,92,0.00,,,0.00,meteobridge,2013-12-02 06:10:00,
2013-12-02 01:15:00,55.0,52.7,29.96,NNE,12,0.0,0.0,92,0.00,,,0.00,meteobridge,2013-12-02 06:15:00,
2013-12-02 01:21:00,55.0,52.7,29.96,NNE,12,0.0,0.0,92,0.00,,,0.00,meteobridge,2013-12-02 06:21:00,
2013-12-02 01:26:00,55.0,52.7,29.96,NNE,12,0.0,0.0,92,0.00,,,0.00,meteobridge,2013-12-02 06:26:00,
2013-12-02 01:31:00,54.9,52.5,29.95,NNE,12,0.0,0.0,92,0.00,,,0.00,meteobridge,2013-12-02 06:31:00,
2013-12-02 01:36:00,54.9,52.5,29.95,NNE,12,0.0,0.0,92,0.00,,,0.00,meteobridge,2013-12-02 06:36:00,
2013-12-02 01:41:00,54.9,52.5,29.95,NNE,12,0.0,0.0,92,0.00,,,0.00,meteobridge,2013-12-02 06:41:00,
2013-12-02 01:46:00,54.7,52.3,29.95,NNE,12,0.0,0.0,92,0.00,,,0.00,meteobridge,2013-12-02 06:46:00,
2013-12-02 01:51:00,54.7,52.3,29.95,NNE,12,0.0,0.0,92,0.00,,,0.00,meteobridge,2013-12-02 06:51:00,
2013-12-02 01:56:00,54.7,52.3,29.95,NNE,12,0.0,0.0,92,0.00,,,0.00,meteobridge,2013-12-02 06:56:00,
2013-12-02 02:01:00,54.5,52.2,29.95,NNE,12,0.0,0.0,92,0.00,,,0.00,meteobridge,2013-12-02 07:01:00,
2013-12-02 02:07:00,54.5,52.5,29.95,NNE,12,0.0,0.0,93,0.00,,,0.00,meteobridge,2013-12-02 07:07:00,
2013-12-02 02:12:00,54.5,52.5,29.95,NNE,12,0.0,0.0,93,0.00,,,0.00,meteobridge,2013-12-02 07:12:00,
2013-12-02 02:17:00,54.5,52.5,29.95,NNE,12,0.0,0.0,93,0.00,,,0.00,meteobridge,2013-12-02 07:17:00,
2013-12-02 02:22:00,54.5,52.5,29.95,NNE,12,0.0,0.9,93,0.00,,,0.00,meteobridge,2013-12-02 07:22:00,
2013-12-02 02:27:00,54.5,52.5,29.94,NNE,12,0.0,0.0,93,0.00,,,0.00,meteobridge,2013-12-02 07:27:00,
2013-12-02 02:32:00,54.5,52.5,29.94,NNE,12,0.0,0.0,93,0.00,,,0.00,meteobridge,2013-12-02 07:32:00,
2013-12-02 02:37:00,54.5,52.5,29.94,NNE,12,0.0,0.0,93,0.00,,,0.00,meteobridge,2013-12-02 07:37:00,
2013-12-02 02:42:00,54.5,52.5,29.94,NNE,12,0.0,0.0,93,0.00,,,0.00,meteobridge,2013-12-02 07:42:00,
2013-12-02 02:47:00,54.5,52.5,29.94,NNE,12,0.0,0.0,93,0.00,,,0.00,meteobridge,2013-12-02 07:47:00,
2013-12-02 02:53:00,54.7,52.7,29.94,NNE,12,0.0,0.0,93,0.00,,,0.00,meteobridge,2013-12-02 07:53:00,
2013-12-02 02:58:00,54.7,53.1,29.94,NNE,12,0.0,0.0,94,0.00,,,0.00,meteobridge,2013-12-02 07:58:00,
2013-12-02 03:03:00,54.7,53.1,29.95,NNE,12,0.9,0.9,94,0.00,,,0.00,meteobridge,2013-12-02 08:03:00,
2013-12-02 03:08:00,54.7,53.1,29.95,NNE,12,0.0,0.0,94,0.00,,,0.00,meteobridge,2013-12-02 08:08:00,
2013-12-02 03:13:00,54.9,53.2,29.95,NNE,12,0.0,2.0,94,0.00,,,0.00,meteobridge,2013-12-02 08:13:00,
2013-12-02 03:18:00,54.9,53.2,29.94,NNE,12,0.0,0.9,94,0.00,,,0.00,meteobridge,2013-12-02 08:18:00,
2013-12-02 03:23:00,54.9,53.2,29.94,NNE,12,0.0,0.0,94,0.00,,,0.00,meteobridge,2013-12-02 08:23:00,
2013-12-02 03:28:00,54.9,53.2,29.94,NNE,12,0.9,0.9,94,0.00,,,0.00,meteobridge,2013-12-02 08:28:00,
2013-12-02 03:34:00,54.9,53.2,29.94,NNE,12,0.0,0.0,94,0.00,,,0.00,meteobridge,2013-12-02 08:34:00,
2013-12-02 03:39:00,54.9,53.2,29.93,North,351,0.0,0.0,94,0.00,,,0.00,meteobridge,2013-12-02 08:39:00,
2013-12-02 03:44:00,54.9,53.2,29.93,North,351,0.0,2.0,94,0.00,,,0.00,meteobridge,2013-12-02 08:44:00,
2013-12-02 03:49:00,54.7,53.1,29.93,North,351,0.0,0.9,94,0.00,,,0.00,meteobridge,2013-12-02 08:49:00,
2013-12-02 03:54:00,54.7,53.1,29.93,North,351,0.9,2.0,94,0.00,,,0.00,meteobridge,2013-12-02 08:54:00,
2013-12-02 04:00:00,54.7,53.1,29.93,North,351,0.0,0.0,94,0.00,,,0.00,meteobridge,2013-12-02 09:00:00,
2013-12-02 04:05:00,54.7,53.1,29.93,North,351,0.0,0.9,94,0.00,,,0.00,meteobridge,2013-12-02 09:05:00,
2013-12-02 04:10:00,54.7,53.1,29.93,North,351,0.0,0.0,94,0.00,,,0.00,meteobridge,2013-12-02 09:10:00,
2013-12-02 04:15:00,54.5,52.9,29.93,WNW,292,0.0,4.0,94,0.00,,,0.00,meteobridge,2013-12-02 09:15:00,
2013-12-02 04:20:00,54.5,52.9,29.93,WNW,292,0.0,4.0,94,0.00,,,0.00,meteobridge,2013-12-02 09:20:00,
2013-12-02 04:25:00,54.3,52.7,29.93,WNW,294,2.0,4.9,94,0.00,,,0.00,meteobridge,2013-12-02 09:25:00,
2013-12-02 04:30:00,54.3,52.7,29.93,WNW,292,4.0,6.0,94,0.00,,,0.00,meteobridge,2013-12-02 09:30:00,
2013-12-02 04:35:00,54.3,52.7,29.93,WNW,291,0.9,0.9,94,0.00,,,0.00,meteobridge,2013-12-02 09:35:00,
2013-12-02 04:40:00,54.3,52.7,29.93,WNW,282,0.0,4.0,94,0.00,,,0.00,meteobridge,2013-12-02 09:40:00,
2013-12-02 04:45:00,54.1,52.5,29.93,WNW,282,0.0,2.0,94,0.00,,,0.00,meteobridge,2013-12-02 09:45:00,
2013-12-02 04:50:00,54.1,52.5,29.94,WNW,295,0.0,4.9,94,0.00,,,0.00,meteobridge,2013-12-02 09:50:00,
2013-12-02 04:55:00,54.1,52.5,29.94,WNW,300,0.0,4.0,94,0.00,,,0.00,meteobridge,2013-12-02 09:55:00,
2013-12-02 05:00:00,54.1,52.5,29.94,WNW,298,0.9,4.0,94,0.00,,,0.00,meteobridge,2013-12-02 10:00:00,
2013-12-02 05:06:00,54.0,52.5,29.93,WNW,298,0.9,4.0,95,0.00,,,0.00,meteobridge,2013-12-02 10:06:00,
2013-12-02 05:11:00,54.0,52.5,29.93,WNW,298,0.9,0.9,95,0.00,,,0.00,meteobridge,2013-12-02 10:11:00,
2013-12-02 05:16:00,54.0,52.5,29.94,WNW,298,0.0,0.0,95,0.00,,,0.00,meteobridge,2013-12-02 10:16:00,
2013-12-02 05:21:00,54.0,52.5,29.94,WNW,298,0.0,0.0,95,0.00,,,0.00,meteobridge,2013-12-02 10:21:00,
2013-12-02 05:26:00,54.0,52.5,29.94,WNW,298,0.0,0.0,95,0.00,,,0.00,meteobridge,2013-12-02 10:26:00,
2013-12-02 05:32:00,53.8,52.3,29.93,WNW,298,0.0,0.0,95,0.00,,,0.00,meteobridge,2013-12-02 10:32:00,
2013-12-02 05:37:00,53.8,52.3,29.93,WNW,298,0.0,0.0,95,0.00,,,0.00,meteobridge,2013-12-02 10:37:00,
2013-12-02 05:42:00,53.8,52.3,29.92,WNW,298,0.0,0.0,95,0.00,,,0.00,meteobridge,2013-12-02 10:42:00,
2013-12-02 05:47:00,53.8,52.3,29.92,WNW,298,0.0,0.0,95,0.00,,,0.00,meteobridge,2013-12-02 10:47:00,
2013-12-02 05:53:00,53.6,52.2,29.92,WNW,298,0.0,0.0,95,0.00,,,0.00,meteobridge,2013-12-02 10:53:00,
2013-12-02 05:58:00,53.6,52.2,29.93,WNW,298,0.0,0.0,95,0.00,,,0.00,meteobridge,2013-12-02 10:58:00,
2013-12-02 06:03:00,53.4,52.0,29.93,WNW,298,0.0,0.0,95,0.00,,,0.00,meteobridge,2013-12-02 11:03:00,
2013-12-02 06:08:00,53.4,52.0,29.93,WNW,298,0.0,0.0,95,0.00,,,0.00,meteobridge,2013-12-02 11:08:00,
2013-12-02 06:13:00,53.4,52.0,29.93,WNW,298,0.0,0.0,95,0.00,,,0.00,meteobridge,2013-12-02 11:13:00,
2013-12-02 06:18:00,53.4,52.0,29.93,WNW,298,0.0,0.9,95,0.00,,,0.00,meteobridge,2013-12-02 11:18:00,
2013-12-02 06:23:00,53.4,52.0,29.93,WNW,298,0.0,0.0,95,0.00,,,0.00,meteobridge,2013-12-02 11:23:00,
2013-12-02 06:29:00,53.4,52.0,29.93,WNW,298,0.0,0.0,95,0.00,,,0.00,meteobridge,2013-12-02 11:29:00,
2013-12-02 06:34:00,53.4,52.0,29.92,WNW,298,0.0,0.0,95,0.00,,,0.00,meteobridge,2013-12-02 11:34:00,
2013-12-02 06:39:00,53.4,52.0,29.93,WNW,298,0.0,0.9,95,0.00,,,0.00,meteobridge,2013-12-02 11:39:00,
2013-12-02 06:44:00,53.2,51.8,29.92,WNW,298,0.0,0.0,95,0.00,,,0.00,meteobridge,2013-12-02 11:44:00,
2013-12-02 06:49:00,53.2,51.8,29.92,WNW,298,0.0,0.0,95,0.00,,,0.00,meteobridge,2013-12-02 11:49:00,
2013-12-02 06:54:00,53.2,51.8,29.92,WNW,298,0.0,0.0,95,0.00,,,0.00,meteobridge,2013-12-02 11:54:00,
2013-12-02 06:59:00,53.2,51.8,29.92,WNW,298,0.0,0.0,95,0.00,,,0.00,meteobridge,2013-12-02 11:59:00,
2013-12-02 07:04:00,53.2,51.8,29.91,WNW,298,0.0,0.0,95,0.00,,,0.00,meteobridge,2013-12-02 12:04:00,
2013-12-02 07:10:00,53.2,51.8,29.91,WNW,298,0.0,0.0,95,0.00,,,0.00,meteobridge,2013-12-02 12:10:00,
2013-12-02 07:15:00,53.1,51.6,29.91,WNW,298,0.0,0.0,95,0.00,,,0.00,meteobridge,2013-12-02 12:15:00,
2013-12-02 07:21:00,53.1,51.6,29.92,WNW,298,0.0,2.0,95,0.00,,,0.00,meteobridge,2013-12-02 12:21:00,
2013-12-02 07:26:00,53.1,51.6,29.91,WNW,298,0.0,0.0,95,0.00,,,0.00,meteobridge,2013-12-02 12:26:00,
2013-12-02 07:31:00,53.1,51.6,29.92,WNW,298,0.0,0.0,95,0.00,,,0.00,meteobridge,2013-12-02 12:31:00,
2013-12-02 07:36:00,53.1,51.6,29.92,WNW,298,0.0,0.0,95,0.00,,,0.00,meteobridge,2013-12-02 12:36:00,
2013-12-02 07:41:00,52.9,51.4,29.92,WNW,298,0.0,0.0,95,0.00,,,0.00,meteobridge,2013-12-02 12:41:00,
2013-12-02 07:46:00,52.9,51.3,29.92,WNW,298,0.0,0.0,94,0.00,,,0.00,meteobridge,2013-12-02 12:46:00,
2013-12-02 07:51:00,52.9,51.3,29.92,WNW,298,0.0,0.0,94,0.00,,,0.00,meteobridge,2013-12-02 12:51:00,
2013-12-02 07:56:00,52.9,51.3,29.92,WNW,298,0.0,0.0,94,0.00,,,0.00,meteobridge,2013-12-02 12:56:00,
2013-12-02 08:01:00,52.9,51.3,29.91,WNW,298,0.0,0.0,94,0.00,,,0.00,meteobridge,2013-12-02 13:01:00,
2013-12-02 08:07:00,52.9,51.3,29.91,WNW,298,0.0,0.0,94,0.00,,,0.00,meteobridge,2013-12-02 13:07:00,
2013-12-02 08:12:00,52.9,51.3,29.92,WNW,298,0.0,0.0,94,0.00,,,0.00,meteobridge,2013-12-02 13:12:00,
2013-12-02 08:17:00,52.9,51.3,29.91,WNW,298,0.0,0.0,94,0.00,,,0.00,meteobridge,2013-12-02 13:17:00,
2013-12-02 08:22:00,52.9,51.3,29.91,WNW,298,0.0,0.0,94,0.00,,,0.00,meteobridge,2013-12-02 13:22:00,
2013-12-02 08:27:00,52.9,51.3,29.91,WNW,298,0.0,0.0,94,0.00,,,0.00,meteobridge,2013-12-02 13:27:00,
2013-12-02 08:33:00,52.9,51.3,29.91,WNW,298,0.0,0.0,94,0.00,,,0.00,meteobridge,2013-12-02 13:33:00,
2013-12-02 08:38:00,52.9,51.3,29.91,WNW,298,2.0,2.0,94,0.00,,,0.00,meteobridge,2013-12-02 13:38:00,
2013-12-02 08:43:00,53.1,51.6,29.91,WNW,298,0.0,0.0,95,0.00,,,0.00,meteobridge,2013-12-02 13:43:00,
2013-12-02 08:48:00,53.1,51.6,29.91,WNW,298,0.0,2.0,95,0.00,,,0.00,meteobridge,2013-12-02 13:48:00,
2013-12-02 08:54:00,53.2,51.8,29.91,WNW,298,0.0,0.0,95,0.00,,,0.00,meteobridge,2013-12-02 13:54:00,
2013-12-02 08:59:00,53.2,51.8,29.91,WNW,298,0.0,2.0,95,0.00,,,0.00,meteobridge,2013-12-02 13:59:00,
2013-12-02 09:04:00,53.2,51.6,29.91,WNW,298,0.0,0.0,94,0.00,,,0.00,meteobridge,2013-12-02 14:04:00,
2013-12-02 09:09:00,53.2,51.6,29.91,WNW,298,0.0,2.0,94,0.00,,,0.00,meteobridge,2013-12-02 14:09:00,
2013-12-02 09:14:00,53.4,51.8,29.91,WNW,298,0.9,0.9,94,0.00,,,0.00,meteobridge,2013-12-02 14:14:00,
2013-12-02 09:19:00,53.4,51.8,29.91,WNW,298,0.0,2.0,94,0.00,,,0.00,meteobridge,2013-12-02 14:19:00,
2013-12-02 09:24:00,53.6,52.0,29.91,WNW,298,0.0,2.0,94,0.00,,,0.00,meteobridge,2013-12-02 14:24:00,
2013-12-02 09:29:00,53.8,52.2,29.90,WNW,298,0.9,0.9,94,0.00,,,0.00,meteobridge,2013-12-02 14:29:00,
2013-12-02 09:35:00,53.8,51.8,29.90,WNW,298,0.0,4.0,93,0.00,,,0.00,meteobridge,2013-12-02 14:35:00,
2013-12-02 09:40:00,54.0,52.0,29.90,WNW,298,0.0,0.0,93,0.00,,,0.00,meteobridge,2013-12-02 14:40:00,
2013-12-02 09:45:00,54.1,52.2,29.91,WNW,298,0.0,0.9,93,0.00,,,0.00,meteobridge,2013-12-02 14:45:00,
2013-12-02 09:50:00,54.1,51.8,29.91,WNW,298,0.0,0.9,92,0.00,,,0.00,meteobridge,2013-12-02 14:50:00,
2013-12-02 09:55:00,54.3,52.0,29.91,WNW,298,0.0,0.0,92,0.00,,,0.00,meteobridge,2013-12-02 14:55:00,
2013-12-02 10:00:00,54.5,52.2,29.91,WNW,298,0.0,0.0,92,0.00,,,0.00,meteobridge,2013-12-02 15:00:00,
2013-12-02 10:05:00,54.7,52.2,29.91,WNW,298,0.9,4.0,91,0.00,,,0.00,meteobridge,2013-12-02 15:05:00,
2013-12-02 10:10:00,54.9,52.3,29.92,NW,317,2.0,6.0,91,0.00,,,0.00,meteobridge,2013-12-02 15:10:00,
2013-12-02 10:15:00,54.9,52.0,29.91,NW,317,0.0,0.0,90,0.00,,,0.00,meteobridge,2013-12-02 15:15:00,
2013-12-02 10:20:00,55.0,52.2,29.91,NW,317,0.9,0.9,90,0.00,,,0.00,meteobridge,2013-12-02 15:20:00,
2013-12-02 10:25:00,55.0,52.2,29.90,NW,319,0.9,0.9,90,0.00,,,0.00,meteobridge,2013-12-02 15:25:00,
2013-12-02 10:31:00,55.2,52.0,29.90,NNW,329,0.0,2.0,89,0.00,,,0.00,meteobridge,2013-12-02 15:31:00,
2013-12-02 10:36:00,55.4,52.2,29.90,NNW,327,0.0,4.0,89,0.00,,,0.00,meteobridge,2013-12-02 15:36:00,
2013-12-02 10:41:00,55.6,52.2,29.90,NNW,327,0.0,0.9,88,0.00,,,0.00,meteobridge,2013-12-02 15:41:00,
2013-12-02 10:46:00,55.6,52.2,29.90,NNW,327,0.9,2.0,88,0.00,,,0.00,meteobridge,2013-12-02 15:46:00,
2013-12-02 10:51:00,55.8,52.0,29.90,NW,316,0.0,2.0,87,0.00,,,0.00,meteobridge,2013-12-02 15:51:00,
2013-12-02 10:56:00,55.9,51.8,29.89,NW,316,0.0,2.0,86,0.00,,,0.00,meteobridge,2013-12-02 15:56:00,
2013-12-02 11:01:00,55.9,51.8,29.90,NW,306,0.0,4.9,86,0.00,,,0.00,meteobridge,2013-12-02 16:01:00,
2013-12-02 11:07:00,56.1,51.4,29.90,WNW,300,0.0,4.9,84,0.00,,,0.00,meteobridge,2013-12-02 16:07:00,
2013-12-02 11:12:00,56.1,51.4,29.89,WNW,300,0.0,2.0,84,0.00,,,0.00,meteobridge,2013-12-02 16:12:00,
2013-12-02 11:17:00,56.3,51.4,29.88,WNW,300,0.0,2.0,84,0.00,,,0.00,meteobridge,2013-12-02 16:17:00,
2013-12-02 11:22:00,56.5,51.4,29.88,WNW,300,0.0,2.0,83,0.00,,,0.00,meteobridge,2013-12-02 16:22:00,
2013-12-02 11:27:00,56.7,51.6,29.88,NW,324,4.0,4.0,83,0.00,,,0.00,meteobridge,2013-12-02 16:27:00,
2013-12-02 11:32:00,56.7,51.3,29.88,NW,307,0.0,0.9,82,0.00,,,0.00,meteobridge,2013-12-02 16:32:00,
2013-12-02 11:38:00,56.8,51.4,29.87,NW,309,0.0,0.9,82,0.00,,,0.00,meteobridge,2013-12-02 16:38:00,
2013-12-02 11:43:00,57.0,51.6,29.87,NNE,28,0.0,2.9,82,0.00,,,0.00,meteobridge,2013-12-02 16:43:00,
2013-12-02 11:48:00,57.4,51.3,29.86,NW,314,2.0,6.9,80,0.00,,,0.00,meteobridge,2013-12-02 16:48:00,
2013-12-02 11:53:00,57.6,51.4,29.86,West,265,6.0,6.0,80,0.00,,,0.00,meteobridge,2013-12-02 16:53:00,
2013-12-02 11:58:00,57.7,51.3,29.85,WNW,292,2.0,2.0,79,0.00,,,0.00,meteobridge,2013-12-02 16:58:00,
2013-12-02 12:03:00,57.9,51.1,29.85,WNW,298,0.0,4.0,78,0.00,,,0.00,meteobridge,2013-12-02 17:03:00,
2013-12-02 12:09:00,58.6,51.4,29.85,NE,48,0.0,0.9,77,0.00,,,0.00,meteobridge,2013-12-02 17:09:00,
2013-12-02 12:14:00,59.2,51.6,29.85,NE,48,2.0,2.0,76,0.00,,,0.00,meteobridge,2013-12-02 17:14:00,
2013-12-02 12:19:00,59.5,50.9,29.85,NNE,21,4.0,8.1,73,0.00,,,0.00,meteobridge,2013-12-02 17:19:00,
2013-12-02 12:24:00,60.1,50.7,29.85,NNE,30,0.0,6.9,71,0.00,,,0.00,meteobridge,2013-12-02 17:24:00,
2013-12-02 12:29:00,60.8,50.2,29.85,NE,49,0.0,2.9,68,0.00,,,0.00,meteobridge,2013-12-02 17:29:00,
2013-12-02 12:34:00,61.3,49.8,29.85,WNW,288,0.0,4.9,66,0.00,,,0.00,meteobridge,2013-12-02 17:34:00,
2013-12-02 12:39:00,61.9,49.6,29.84,WNW,291,0.0,6.9,64,0.00,,,0.00,meteobridge,2013-12-02 17:39:00,
2013-12-02 12:44:00,62.4,50.0,29.84,North,351,0.0,2.0,64,0.00,,,0.00,meteobridge,2013-12-02 17:44:00,
2013-12-02 12:49:00,63.1,50.4,29.84,ENE,71,0.9,4.9,63,0.00,,,0.00,meteobridge,2013-12-02 17:49:00,
2013-12-02 12:54:00,63.7,50.4,29.83,NE,36,2.9,2.9,62,0.00,,,0.00,meteobridge,2013-12-02 17:54:00,
2013-12-02 12:59:00,64.2,50.0,29.83,WNW,282,2.0,2.0,60,0.00,,,0.00,meteobridge,2013-12-02 17:59:00,
2013-12-02 13:05:00,64.8,49.1,29.83,WNW,300,0.0,4.0,57,0.00,,,0.00,meteobridge,2013-12-02 18:05:00,
2013-12-02 13:10:00,64.9,48.9,29.83,WNW,290,2.0,4.9,56,0.00,,,0.00,meteobridge,2013-12-02 18:10:00,
2013-12-02 13:15:00,65.1,48.0,29.83,WNW,288,0.9,8.9,54,0.00,,,0.00,meteobridge,2013-12-02 18:15:00,
2013-12-02 13:20:00,65.5,48.4,29.83,WNW,295,0.9,4.0,54,0.00,,,0.00,meteobridge,2013-12-02 18:20:00,
2013-12-02 13:25:00,65.7,48.0,29.83,WNW,294,2.0,6.0,53,0.00,,,0.00,meteobridge,2013-12-02 18:25:00,
2013-12-02 13:30:00,66.0,47.3,29.83,NW,323,0.9,6.0,51,0.00,,,0.00,meteobridge,2013-12-02 18:30:00,
2013-12-02 13:35:00,66.4,47.7,29.83,WNW,294,0.0,6.9,51,0.00,,,0.00,meteobridge,2013-12-02 18:35:00,
2013-12-02 13:41:00,66.6,47.8,29.83,WNW,296,0.0,4.9,51,0.00,,,0.00,meteobridge,2013-12-02 18:41:00,
2013-12-02 13:46:00,66.6,47.3,29.83,WNW,294,0.0,6.0,50,0.00,,,0.00,meteobridge,2013-12-02 18:46:00,
2013-12-02 13:51:00,66.7,47.5,29.82,NW,304,4.9,4.9,50,0.00,,,0.00,meteobridge,2013-12-02 18:51:00,
2013-12-02 13:56:00,66.9,47.1,29.82,NNE,30,0.9,4.9,49,0.00,,,0.00,meteobridge,2013-12-02 18:56:00,
2013-12-02 14:01:00,66.9,47.7,29.82,WNW,296,0.9,4.9,50,0.00,,,0.00,meteobridge,2013-12-02 19:01:00,
2013-12-02 14:07:00,66.9,46.6,29.82,WNW,298,0.0,4.9,48,0.00,,,0.00,meteobridge,2013-12-02 19:07:00,
2013-12-02 14:12:00,66.7,47.5,29.82,NE,41,0.0,4.9,50,0.00,,,0.00,meteobridge,2013-12-02 19:12:00,
2013-12-02 14:17:00,66.6,47.3,29.81,NW,307,0.0,0.9,50,0.00,,,0.00,meteobridge,2013-12-02 19:17:00,
2013-12-02 14:22:00,66.4,47.7,29.81,NW,319,0.9,4.0,51,0.00,,,0.00,meteobridge,2013-12-02 19:22:00,
2013-12-02 14:27:00,66.0,47.3,29.81,North,355,0.0,0.9,51,0.00,,,0.00,meteobridge,2013-12-02 19:27:00,
2013-12-02 14:32:00,65.8,47.7,29.81,NW,321,0.0,0.9,52,0.00,,,0.00,meteobridge,2013-12-02 19:32:00,
2013-12-02 14:37:00,65.5,47.8,29.81,NNW,341,0.0,2.0,53,0.00,,,0.00,meteobridge,2013-12-02 19:37:00,
2013-12-02 14:43:00,65.1,47.5,29.81,NNE,17,0.0,0.0,53,0.00,,,0.00,meteobridge,2013-12-02 19:43:00,
2013-12-02 14:48:00,64.9,47.8,29.81,NW,313,4.0,4.0,54,0.00,,,0.00,meteobridge,2013-12-02 19:48:00,
2013-12-02 14:53:00,64.8,47.3,29.81,WNW,296,0.0,6.0,53,0.00,,,0.00,meteobridge,2013-12-02 19:53:00,
2013-12-02 14:58:00,64.6,47.1,29.80,WNW,292,0.0,4.9,53,0.00,,,0.00,meteobridge,2013-12-02 19:58:00,
2013-12-02 15:03:00,64.2,47.3,29.81,WNW,300,0.0,4.9,54,0.00,,,0.00,meteobridge,2013-12-02 20:03:00,
2013-12-02 15:09:00,64.0,47.5,29.81,WNW,300,0.0,2.0,55,0.00,,,0.00,meteobridge,2013-12-02 20:09:00,
2013-12-02 15:14:00,64.0,48.0,29.81,WNW,302,0.9,2.0,56,0.00,,,0.00,meteobridge,2013-12-02 20:14:00,
2013-12-02 15:19:00,63.9,47.3,29.81,WNW,297,0.0,2.0,55,0.00,,,0.00,meteobridge,2013-12-02 20:19:00,
2013-12-02 15:24:00,63.7,47.7,29.81,WNW,297,0.0,0.0,56,0.00,,,0.00,meteobridge,2013-12-02 20:24:00,
2013-12-02 15:29:00,63.7,47.7,29.81,WNW,287,4.0,4.9,56,0.00,,,0.00,meteobridge,2013-12-02 20:29:00,
2013-12-02 15:34:00,63.3,47.8,29.81,NE,38,2.9,2.9,57,0.00,,,0.00,meteobridge,2013-12-02 20:34:00,
2013-12-02 15:39:00,63.1,47.1,29.81,NE,37,0.0,0.9,56,0.00,,,0.00,meteobridge,2013-12-02 20:39:00,
2013-12-02 15:44:00,63.1,47.7,29.80,NE,37,0.0,0.9,57,0.00,,,0.00,meteobridge,2013-12-02 20:44:00,
2013-12-02 15:49:00,63.0,47.5,29.81,NNE,13,0.0,2.9,57,0.00,,,0.00,meteobridge,2013-12-02 20:49:00,
2013-12-02 15:54:00,63.0,47.5,29.81,NNE,12,0.0,0.0,57,0.00,,,0.00,meteobridge,2013-12-02 20:54:00,
2013-12-02 15:59:00,62.8,47.3,29.81,NNE,15,0.0,2.0,57,0.00,,,0.00,meteobridge,2013-12-02 20:59:00,
2013-12-02 16:04:00,62.8,47.3,29.82,NNE,15,0.0,0.9,57,0.00,,,0.00,meteobridge,2013-12-02 21:04:00,
2013-12-02 16:09:00,62.6,48.0,29.81,WNW,290,0.0,0.9,59,0.00,,,0.00,meteobridge,2013-12-02 21:09:00,
2013-12-02 16:15:00,62.4,47.5,29.81,West,279,0.0,2.0,58,0.00,,,0.00,meteobridge,2013-12-02 21:15:00,
2013-12-02 16:20:00,62.2,47.3,29.80,ENE,62,0.0,0.9,58,0.00,,,0.00,meteobridge,2013-12-02 21:20:00,
2013-12-02 16:25:00,62.2,47.7,29.81,ENE,62,0.0,0.0,59,0.00,,,0.00,meteobridge,2013-12-02 21:25:00,
2013-12-02 16:30:00,62.1,48.4,29.81,ENE,62,0.0,0.0,61,0.00,,,0.00,meteobridge,2013-12-02 21:30:00,
2013-12-02 16:35:00,62.1,49.3,29.82,ENE,62,0.0,0.0,63,0.00,,,0.00,meteobridge,2013-12-02 21:35:00,
2013-12-02 16:40:00,61.9,49.6,29.82,ENE,62,0.0,0.0,64,0.00,,,0.00,meteobridge,2013-12-02 21:40:00,
2013-12-02 16:46:00,61.5,50.0,29.82,ENE,62,0.0,0.0,66,0.00,,,0.00,meteobridge,2013-12-02 21:46:00,
2013-12-02 16:51:00,61.2,50.2,29.82,ENE,62,0.0,0.0,67,0.00,,,0.00,meteobridge,2013-12-02 21:51:00,
2013-12-02 16:56:00,60.8,49.8,29.82,ENE,62,0.0,0.0,67,0.00,,,0.00,meteobridge,2013-12-02 21:56:00,
2013-12-02 17:02:00,60.4,50.2,29.82,SSW,211,0.0,2.0,69,0.00,,,0.00,meteobridge,2013-12-02 22:02:00,
2013-12-02 17:07:00,60.1,50.2,29.83,SSW,211,0.0,0.0,70,0.00,,,0.00,meteobridge,2013-12-02 22:07:00,
2013-12-02 17:12:00,59.7,50.4,29.83,SW,218,0.0,0.0,71,0.00,,,0.00,meteobridge,2013-12-02 22:12:00,
2013-12-02 17:17:00,59.4,50.4,29.83,SW,218,0.0,0.9,72,0.00,,,0.00,meteobridge,2013-12-02 22:17:00,
2013-12-02 17:22:00,59.0,50.4,29.83,SW,218,0.0,0.0,73,0.00,,,0.00,meteobridge,2013-12-02 22:22:00,
2013-12-02 17:27:00,58.6,50.0,29.83,SW,218,0.0,0.0,73,0.00,,,0.00,meteobridge,2013-12-02 22:27:00,
2013-12-02 17:32:00,58.5,50.2,29.83,SW,218,0.0,0.0,74,0.00,,,0.00,meteobridge,2013-12-02 22:32:00,
2013-12-02 17:37:00,57.9,49.6,29.84,SW,218,0.0,0.0,74,0.00,,,0.00,meteobridge,2013-12-02 22:37:00,
2013-12-02 17:42:00,57.6,49.6,29.84,SW,217,0.0,0.0,75,0.00,,,0.00,meteobridge,2013-12-02 22:42:00,
2013-12-02 17:48:00,57.4,49.5,29.84,SW,218,0.0,0.0,75,0.00,,,0.00,meteobridge,2013-12-02 22:48:00,
2013-12-02 17:53:00,56.8,49.3,29.84,SW,218,0.0,0.0,76,0.00,,,0.00,meteobridge,2013-12-02 22:53:00,
2013-12-02 17:58:00,56.7,49.8,29.84,SW,218,0.0,0.0,78,0.00,,,0.00,meteobridge,2013-12-02 22:58:00,
2013-12-02 18:03:00,56.1,49.3,29.83,SW,218,0.0,0.0,78,0.00,,,0.00,meteobridge,2013-12-02 23:03:00,
2013-12-02 18:08:00,55.9,49.5,29.83,SW,218,0.0,0.0,79,0.00,,,0.00,meteobridge,2013-12-02 23:08:00,
2013-12-02 18:14:00,55.6,49.5,29.83,SW,218,0.0,0.0,80,0.00,,,0.00,meteobridge,2013-12-02 23:14:00,
2013-12-02 18:19:00,55.2,49.1,29.84,SW,218,0.0,0.0,80,0.00,,,0.00,meteobridge,2013-12-02 23:19:00,
2013-12-02 18:24:00,55.0,49.3,29.84,SW,218,0.0,0.0,81,0.00,,,0.00,meteobridge,2013-12-02 23:24:00,
2013-12-02 18:29:00,54.7,48.9,29.84,SW,218,0.0,0.0,81,0.00,,,0.00,meteobridge,2013-12-02 23:29:00,
2013-12-02 18:34:00,54.5,48.7,29.84,SW,218,0.0,0.0,81,0.00,,,0.00,meteobridge,2013-12-02 23:34:00,
2013-12-02 18:40:00,54.1,48.4,29.84,SW,218,0.0,0.0,81,0.00,,,0.00,meteobridge,2013-12-02 23:40:00,
2013-12-02 18:45:00,54.0,48.6,29.84,SW,218,0.0,0.0,82,0.00,,,0.00,meteobridge,2013-12-02 23:45:00,
2013-12-02 18:50:00,53.8,48.4,29.85,SW,218,0.0,0.0,82,0.00,,,0.00,meteobridge,2013-12-02 23:50:00,
2013-12-02 18:55:00,53.4,48.4,29.84,SW,218,0.0,0.0,83,0.00,,,0.00,meteobridge,2013-12-02 23:55:00,
2013-12-02 19:00:00,53.2,48.2,29.84,SW,218,0.0,0.0,83,0.00,,,0.00,meteobridge,2013-12-03 00:00:00,
2013-12-02 19:05:00,53.1,48.4,29.85,SW,218,0.0,0.0,84,0.00,,,0.00,meteobridge,2013-12-03 00:05:00,
2013-12-02 19:10:00,52.9,48.2,29.85,SW,218,0.0,0.0,84,0.00,,,0.00,meteobridge,2013-12-03 00:10:00,
2013-12-02 19:16:00,52.7,48.0,29.85,SW,218,0.0,0.0,84,0.00,,,0.00,meteobridge,2013-12-03 00:16:00,
2013-12-02 19:21:00,52.5,47.8,29.85,SW,218,0.0,0.0,84,0.00,,,0.00,meteobridge,2013-12-03 00:21:00,
2013-12-02 19:26:00,52.3,47.7,29.85,SW,218,0.0,0.0,84,0.00,,,0.00,meteobridge,2013-12-03 00:26:00,
2013-12-02 19:31:00,52.2,47.8,29.85,SW,218,0.0,0.0,85,0.00,,,0.00,meteobridge,2013-12-03 00:31:00,
2013-12-02 19:36:00,52.0,47.7,29.85,SW,218,0.0,0.0,85,0.00,,,0.00,meteobridge,2013-12-03 00:36:00,
2013-12-02 19:41:00,51.8,47.5,29.85,SW,218,0.0,0.0,85,0.00,,,0.00,meteobridge,2013-12-03 00:41:00,
2013-12-02 19:46:00,51.6,47.3,29.85,SW,218,0.0,0.0,85,0.00,,,0.00,meteobridge,2013-12-03 00:46:00,
2013-12-02 19:51:00,51.4,47.5,29.86,SW,218,0.0,0.0,86,0.00,,,0.00,meteobridge,2013-12-03 00:51:00,
2013-12-02 19:56:00,51.4,47.5,29.86,SW,218,0.0,0.0,86,0.00,,,0.00,meteobridge,2013-12-03 00:56:00,
2013-12-02 20:01:00,51.3,47.3,29.86,SW,218,0.0,0.0,86,0.00,,,0.00,meteobridge,2013-12-03 01:01:00,
2013-12-02 20:06:00,51.1,47.1,29.86,SW,218,0.0,0.0,86,0.00,,,0.00,meteobridge,2013-12-03 01:06:00,
2013-12-02 20:11:00,50.9,46.9,29.86,SW,218,0.0,0.0,86,0.00,,,0.00,meteobridge,2013-12-03 01:11:00,
2013-12-02 20:17:00,50.7,46.9,29.87,SW,218,0.0,0.0,87,0.00,,,0.00,meteobridge,2013-12-03 01:17:00,
2013-12-02 20:22:00,50.5,46.8,29.87,SW,218,0.0,0.0,87,0.00,,,0.00,meteobridge,2013-12-03 01:22:00,
2013-12-02 20:27:00,50.5,46.8,29.87,SW,218,0.0,0.0,87,0.00,,,0.00,meteobridge,2013-12-03 01:27:00,
2013-12-02 20:32:00,50.4,46.6,29.87,SW,218,0.0,0.0,87,0.00,,,0.00,meteobridge,2013-12-03 01:32:00,
2013-12-02 20:37:00,50.2,46.8,29.86,SW,218,0.0,0.0,88,0.00,,,0.00,meteobridge,2013-12-03 01:37:00,
2013-12-02 20:42:00,50.2,46.8,29.87,SW,218,0.0,0.0,88,0.00,,,0.00,meteobridge,2013-12-03 01:42:00,
2013-12-02 20:47:00,50.0,46.6,29.87,SW,218,0.0,0.0,88,0.00,,,0.00,meteobridge,2013-12-03 01:47:00,
2013-12-02 20:53:00,50.0,46.6,29.87,SW,218,0.0,0.0,88,0.00,,,0.00,meteobridge,2013-12-03 01:53:00,
2013-12-02 20:58:00,49.8,46.4,29.87,SW,218,0.0,0.0,88,0.00,,,0.00,meteobridge,2013-12-03 01:58:00,
2013-12-02 21:03:00,49.6,46.2,29.87,SW,218,0.0,0.0,88,0.00,,,0.00,meteobridge,2013-12-03 02:03:00,
2013-12-02 21:08:00,49.6,47.5,29.88,SW,218,0.0,0.0,92,0.00,,,0.00,meteobridge,2013-12-03 02:08:00,
2013-12-02 21:13:00,49.6,46.6,29.87,SW,218,0.0,0.0,89,0.00,,,0.00,meteobridge,2013-12-03 02:13:00,
2013-12-02 21:18:00,49.5,46.4,29.87,SW,218,0.0,0.0,89,0.00,,,0.00,meteobridge,2013-12-03 02:18:00,
2013-12-02 21:23:00,49.5,46.4,29.88,SW,218,0.0,0.0,89,0.00,,,0.00,meteobridge,2013-12-03 02:23:00,
2013-12-02 21:28:00,49.3,46.2,29.87,SW,218,0.0,0.0,89,0.00,,,0.00,meteobridge,2013-12-03 02:28:00,
2013-12-02 21:33:00,49.3,46.2,29.87,SW,218,0.0,0.0,89,0.00,,,0.00,meteobridge,2013-12-03 02:33:00,
2013-12-02 21:39:00,49.1,46.0,29.87,SW,217,0.0,0.0,89,0.00,,,0.00,meteobridge,2013-12-03 02:39:00,
2013-12-02 21:44:00,48.9,45.9,29.87,SW,218,0.0,0.0,89,0.00,,,0.00,meteobridge,2013-12-03 02:44:00,
2013-12-02 21:50:00,48.9,46.0,29.87,SW,217,0.0,0.0,90,0.00,,,0.00,meteobridge,2013-12-03 02:50:00,
2013-12-02 21:55:00,48.7,45.9,29.88,SW,217,0.0,0.0,90,0.00,,,0.00,meteobridge,2013-12-03 02:55:00,
2013-12-02 22:00:00,48.7,45.9,29.88,SW,218,0.0,0.0,90,0.00,,,0.00,meteobridge,2013-12-03 03:00:00,
2013-12-02 22:05:00,48.6,45.7,29.88,SW,218,0.0,0.0,90,0.00,,,0.00,meteobridge,2013-12-03 03:05:00,
2013-12-02 22:10:00,48.6,45.7,29.88,SW,218,0.0,0.0,90,0.00,,,0.00,meteobridge,2013-12-03 03:10:00,
2013-12-02 22:15:00,48.4,45.5,29.88,SW,218,0.0,0.0,90,0.00,,,0.00,meteobridge,2013-12-03 03:15:00,
2013-12-02 22:21:00,48.4,45.5,29.88,SW,217,0.0,0.0,90,0.00,,,0.00,meteobridge,2013-12-03 03:21:00,
2013-12-02 22:26:00,48.4,45.5,29.88,SW,218,0.0,0.0,90,0.00,,,0.00,meteobridge,2013-12-03 03:26:00,
2013-12-02 22:31:00,48.0,45.1,29.88,SW,217,0.0,0.0,90,0.00,,,0.00,meteobridge,2013-12-03 03:31:00,
2013-12-02 22:36:00,48.0,45.1,29.88,SW,218,0.0,0.0,90,0.00,,,0.00,meteobridge,2013-12-03 03:36:00,
2013-12-02 22:41:00,47.8,45.0,29.88,SW,218,0.0,0.0,90,0.00,,,0.00,meteobridge,2013-12-03 03:41:00,
2013-12-02 22:46:00,47.8,45.0,29.88,SW,217,0.0,0.0,90,0.00,,,0.00,meteobridge,2013-12-03 03:46:00,
2013-12-02 22:52:00,47.8,45.0,29.88,SW,218,0.0,0.0,90,0.00,,,0.00,meteobridge,2013-12-03 03:52:00,
2013-12-02 22:57:00,47.7,45.0,29.88,SW,218,0.0,0.0,90,0.00,,,0.00,meteobridge,2013-12-03 03:57:00,
2013-12-02 23:02:00,47.7,45.0,29.88,SW,218,0.0,0.0,90,0.00,,,0.00,meteobridge,2013-12-03 04:02:00,
2013-12-02 23:07:00,47.5,44.8,29.87,SW,218,0.0,0.0,90,0.00,,,0.00,meteobridge,2013-12-03 04:07:00,
2013-12-02 23:12:00,47.5,44.8,29.88,SW,218,0.0,0.0,90,0.00,,,0.00,meteobridge,2013-12-03 04:12:00,
2013-12-02 23:18:00,47.5,44.8,29.88,SW,218,0.0,0.0,90,0.00,,,0.00,meteobridge,2013-12-03 04:18:00,
2013-12-02 23:23:00,47.3,44.8,29.88,SW,218,0.0,0.0,91,0.00,,,0.00,meteobridge,2013-12-03 04:23:00,
2013-12-02 23:28:00,47.3,44.8,29.88,SW,218,0.0,0.0,91,0.00,,,0.00,meteobridge,2013-12-03 04:28:00,
2013-12-02 23:33:00,47.1,44.6,29.87,SW,217,0.0,0.0,91,0.00,,,0.00,meteobridge,2013-12-03 04:33:00,
2013-12-02 23:38:00,47.1,44.6,29.88,SW,218,0.0,0.0,91,0.00,,,0.00,meteobridge,2013-12-03 04:38:00,
2013-12-02 23:43:00,47.1,44.6,29.88,SW,218,0.0,0.0,91,0.00,,,0.00,meteobridge,2013-12-03 04:43:00,
2013-12-02 23:48:00,47.1,44.6,29.88,SW,218,0.0,0.0,91,0.00,,,0.00,meteobridge,2013-12-03 04:48:00,
2013-12-02 23:53:00,46.9,44.4,29.88,SW,217,0.0,0.0,91,0.00,,,0.00,meteobridge,2013-12-03 04:53:00,
2013-12-02 23:59:00,46.9,44.4,29.88,SW,218,0.0,0.0,91,0.00,,,0.00,meteobridge,2013-12-03 04:59:00,